WXM80 ListenWXM80 Stop

You find our weather info also at:

UK Metoffice

WeatherCloud

Weather Underground

Northeastern Weather Network

AWEKAS

Citizen Weather Observer Program (CWOP)

HAMweather, WeatherForYou, PWS Weather


Weather Underground History page Text

Daily Summary for January 14, 2018 Units:  Both    English   Metric
« Previous Day
Next Day »
Daily Weekly Monthly Yearly Custom
  High: Low: Average:
Temperature: TemperatureF °F /  -17.8 °C 15.9 °F /  -8.9 °C 19.8 °F /  -6.8 °C
Dew Point: DewpointF °F /  -17.8 °C 3.0 °F /  -16.1 °C 6.4 °F /  -14.2 °C
Humidity: Humidity % 40 % 56 %
Wind Speed: WindSpeedMPH mph /  0 km/h - 6.6 mph /  10.6 km/h
Wind Gust: WindSpeedGustMPH mph /  0 km/h - -
Wind:- - South
Pressure: PressureIn in /  0 hPa 30.15 in /  1020.9 hPa -
Precipitation: 0.00 in /  0 mm    
Historical Graphs
 
 
Tabular Data for January 14, 2018
Time Temperature Dew Point Pressure Wind Wind Speed Wind Gust Humidity Rainfall Rate (Hourly)
TemperatureF °F /  -17.8 °C DewpointF °F /  -17.8 °C PressureIn in /  0 hPa Calm     Humidity % HourlyPrecipIn in /  0 mm
00:02 20.7 °F /  -6.3 °C 7.9 °F /  -13.4 °C 30.15 in /  1020.9 hPa North 6.4 mph /  10.3 km/h 13.8 mph /  22.2 km/h 57 % 0.00 in /  0 mm
00:08 20.7 °F /  -6.3 °C 7.9 °F /  -13.4 °C 30.15 in /  1020.9 hPa North 4.5 mph /  7.2 km/h 9.2 mph /  14.8 km/h 57 % 0.00 in /  0 mm
00:16 20.6 °F /  -6.3 °C 7.8 °F /  -13.4 °C 30.15 in /  1020.9 hPa NNW 9.6 mph /  15.4 km/h 15.0 mph /  24.1 km/h 57 % 0.00 in /  0 mm
00:21 20.4 °F /  -6.4 °C 7.6 °F /  -13.6 °C 30.15 in /  1020.9 hPa NNW 5.0 mph /  8 km/h 9.2 mph /  14.8 km/h 57 % 0.00 in /  0 mm
00:26 20.4 °F /  -6.4 °C 7.2 °F /  -13.8 °C 30.15 in /  1020.9 hPa NNW 5.1 mph /  8.2 km/h 13.8 mph /  22.2 km/h 56 % 0.00 in /  0 mm
00:31 20.3 °F /  -6.5 °C 7.5 °F /  -13.6 °C 30.15 in /  1020.9 hPa NNW 5.2 mph /  8.4 km/h 9.0 mph /  14.5 km/h 57 % 0.00 in /  0 mm
00:38 20.2 °F /  -6.6 °C 7.4 °F /  -13.7 °C 30.15 in /  1020.9 hPa NNW 10.6 mph /  17.1 km/h 12.0 mph /  19.3 km/h 57 % 0.00 in /  0 mm
00:43 20.1 °F /  -6.6 °C 7.3 °F /  -13.7 °C 30.15 in /  1020.9 hPa NNW 6.4 mph /  10.3 km/h 8.1 mph /  13 km/h 57 % 0.00 in /  0 mm
00:50 20.0 °F /  -6.7 °C 6.8 °F /  -14 °C 30.16 in /  1021.2 hPa NW 7.1 mph /  11.4 km/h 10.4 mph /  16.7 km/h 56 % 0.00 in /  0 mm
00:56 19.9 °F /  -6.7 °C 6.7 °F /  -14.1 °C 30.16 in /  1021.2 hPa NNW 5.4 mph /  8.7 km/h 9.2 mph /  14.8 km/h 56 % 0.00 in /  0 mm
01:05 19.8 °F /  -6.8 °C 6.2 °F /  -14.3 °C 30.17 in /  1021.6 hPa NNW 5.5 mph /  8.9 km/h 11.5 mph /  18.5 km/h 55 % 0.00 in /  0 mm
01:16 19.5 °F /  -6.9 °C 6.0 °F /  -14.4 °C 30.17 in /  1021.6 hPa NNW 7.0 mph /  11.3 km/h 14.0 mph /  22.5 km/h 55 % 0.00 in /  0 mm
01:24 19.4 °F /  -7 °C 6.6 °F /  -14.1 °C 30.18 in /  1021.9 hPa NNW 7.6 mph /  12.2 km/h 11.0 mph /  17.7 km/h 57 % 0.00 in /  0 mm
01:30 19.4 °F /  -7 °C 6.6 °F /  -14.1 °C 30.18 in /  1021.9 hPa North 7.0 mph /  11.3 km/h 9.2 mph /  14.8 km/h 57 % 0.00 in /  0 mm
01:39 19.3 °F /  -7.1 °C 6.5 °F /  -14.2 °C 30.19 in /  1022.2 hPa NNW 6.4 mph /  10.3 km/h 10.4 mph /  16.7 km/h 57 % 0.00 in /  0 mm
01:45 19.3 °F /  -7.1 °C 6.5 °F /  -14.2 °C 30.19 in /  1022.2 hPa North 4.7 mph /  7.6 km/h 12.7 mph /  20.4 km/h 57 % 0.00 in /  0 mm
02:05 19.0 °F /  -7.2 °C 6.3 °F /  -14.3 °C 30.20 in /  1022.6 hPa NNW 7.3 mph /  11.7 km/h 12.7 mph /  20.4 km/h 57 % 0.00 in /  0 mm
02:16 18.8 °F /  -7.3 °C 6.1 °F /  -14.4 °C 30.21 in /  1022.9 hPa NW 4.7 mph /  7.6 km/h 9.2 mph /  14.8 km/h 57 % 0.00 in /  0 mm
02:24 18.7 °F /  -7.4 °C 6.4 °F /  -14.2 °C 30.20 in /  1022.6 hPa North 5.7 mph /  9.2 km/h 8.1 mph /  13 km/h 58 % 0.00 in /  0 mm
02:32 18.6 °F /  -7.4 °C 7.0 °F /  -13.9 °C 30.21 in /  1022.9 hPa North 5.0 mph /  8 km/h 9.2 mph /  14.8 km/h 60 % 0.00 in /  0 mm
02:39 18.5 °F /  -7.5 °C 6.2 °F /  -14.3 °C 30.21 in /  1022.9 hPa North 7.0 mph /  11.3 km/h 11.5 mph /  18.5 km/h 58 % 0.00 in /  0 mm
02:47 18.4 °F /  -7.6 °C 6.4 °F /  -14.2 °C 30.22 in /  1023.2 hPa NW 8.0 mph /  12.9 km/h 13.8 mph /  22.2 km/h 59 % 0.00 in /  0 mm
02:54 18.3 °F /  -7.6 °C 5.6 °F /  -14.7 °C 30.22 in /  1023.2 hPa North 8.0 mph /  12.9 km/h 12.0 mph /  19.3 km/h 57 % 0.00 in /  0 mm
02:59 18.2 °F /  -7.7 °C 6.3 °F /  -14.3 °C 30.22 in /  1023.2 hPa North 6.2 mph /  10 km/h 11.5 mph /  18.5 km/h 59 % 0.00 in /  0 mm
03:08 18.2 °F /  -7.7 °C 6.6 °F /  -14.1 °C 30.22 in /  1023.2 hPa NNW 5.4 mph /  8.7 km/h 8.0 mph /  12.9 km/h 60 % 0.00 in /  0 mm
03:14 18.0 °F /  -7.8 °C 6.1 °F /  -14.4 °C 30.21 in /  1022.9 hPa NNW 7.1 mph /  11.4 km/h 12.7 mph /  20.4 km/h 59 % 0.00 in /  0 mm
03:32 17.9 °F /  -7.8 °C 6.3 °F /  -14.3 °C 30.22 in /  1023.2 hPa NNW 9.0 mph /  14.5 km/h 19.6 mph /  31.5 km/h 60 % 0.00 in /  0 mm
03:45 17.9 °F /  -7.8 °C 6.3 °F /  -14.3 °C 30.22 in /  1023.2 hPa North 8.2 mph /  13.2 km/h 15.0 mph /  24.1 km/h 60 % 0.00 in /  0 mm
03:50 17.7 °F /  -7.9 °C 6.2 °F /  -14.3 °C 30.22 in /  1023.2 hPa NNW 7.6 mph /  12.2 km/h 15.0 mph /  24.1 km/h 60 % 0.00 in /  0 mm
04:00 17.7 °F /  -7.9 °C 6.2 °F /  -14.3 °C 30.22 in /  1023.2 hPa NW 8.0 mph /  12.9 km/h 13.8 mph /  22.2 km/h 60 % 0.00 in /  0 mm
04:05 17.6 °F /  -8 °C 6.1 °F /  -14.4 °C 30.22 in /  1023.2 hPa North 8.9 mph /  14.3 km/h 15.0 mph /  24.1 km/h 60 % 0.00 in /  0 mm
04:10 17.5 °F /  -8.1 °C 6.0 °F /  -14.4 °C 30.22 in /  1023.2 hPa NNE 9.7 mph /  15.6 km/h 15.0 mph /  24.1 km/h 60 % 0.00 in /  0 mm
04:15 17.4 °F /  -8.1 °C 5.9 °F /  -14.5 °C 30.22 in /  1023.2 hPa North 7.8 mph /  12.6 km/h 13.0 mph /  20.9 km/h 60 % 0.00 in /  0 mm
04:22 17.3 °F /  -8.2 °C 5.4 °F /  -14.8 °C 30.22 in /  1023.2 hPa NE 7.9 mph /  12.7 km/h 13.8 mph /  22.2 km/h 59 % 0.00 in /  0 mm
04:27 17.3 °F /  -8.2 °C 6.1 °F /  -14.4 °C 30.23 in /  1023.6 hPa North 7.8 mph /  12.6 km/h 10.0 mph /  16.1 km/h 61 % 0.00 in /  0 mm
04:33 17.3 °F /  -8.2 °C 5.8 °F /  -14.6 °C 30.23 in /  1023.6 hPa NNW 7.1 mph /  11.4 km/h 13.8 mph /  22.2 km/h 60 % 0.00 in /  0 mm
04:38 17.2 °F /  -8.2 °C 6.4 °F /  -14.2 °C 30.23 in /  1023.6 hPa North 5.6 mph /  9 km/h 9.2 mph /  14.8 km/h 62 % 0.00 in /  0 mm
04:50 17.2 °F /  -8.2 °C 6.4 °F /  -14.2 °C 30.23 in /  1023.6 hPa North 5.7 mph /  9.2 km/h 12.0 mph /  19.3 km/h 62 % 0.00 in /  0 mm
05:04 17.0 °F /  -8.3 °C 5.5 °F /  -14.7 °C 30.23 in /  1023.6 hPa NNW 7.1 mph /  11.4 km/h 10.0 mph /  16.1 km/h 60 % 0.00 in /  0 mm
05:11 17.0 °F /  -8.3 °C 5.5 °F /  -14.7 °C 30.24 in /  1023.9 hPa NNW 5.5 mph /  8.9 km/h 9.2 mph /  14.8 km/h 60 % 0.00 in /  0 mm
05:16 16.9 °F /  -8.4 °C 5.8 °F /  -14.6 °C 30.25 in /  1024.3 hPa NNE 5.2 mph /  8.4 km/h 10.4 mph /  16.7 km/h 61 % 0.00 in /  0 mm
05:24 16.9 °F /  -8.4 °C 5.4 °F /  -14.8 °C 30.25 in /  1024.3 hPa WNW 6.0 mph /  9.7 km/h 11.5 mph /  18.5 km/h 60 % 0.00 in /  0 mm
05:29 17.0 °F /  -8.3 °C 5.5 °F /  -14.7 °C 30.25 in /  1024.3 hPa NNE 5.2 mph /  8.4 km/h 9.2 mph /  14.8 km/h 60 % 0.00 in /  0 mm
05:37 17.0 °F /  -8.3 °C 5.5 °F /  -14.7 °C 30.25 in /  1024.3 hPa NW 7.2 mph /  11.6 km/h 13.8 mph /  22.2 km/h 60 % 0.00 in /  0 mm
05:43 16.9 °F /  -8.4 °C 4.7 °F /  -15.2 °C 30.26 in /  1024.6 hPa NNW 5.7 mph /  9.2 km/h 10.4 mph /  16.7 km/h 58 % 0.00 in /  0 mm
05:49 16.9 °F /  -8.4 °C 5.0 °F /  -15 °C 30.26 in /  1024.6 hPa NW 4.6 mph /  7.4 km/h 9.2 mph /  14.8 km/h 59 % 0.00 in /  0 mm
05:57 16.9 °F /  -8.4 °C 4.7 °F /  -15.2 °C 30.27 in /  1024.9 hPa NNW 5.6 mph /  9 km/h 6.9 mph /  11.1 km/h 58 % 0.00 in /  0 mm
06:03 17.0 °F /  -8.3 °C 4.7 °F /  -15.2 °C 30.27 in /  1024.9 hPa NNW 6.6 mph /  10.6 km/h 12.7 mph /  20.4 km/h 58 % 0.00 in /  0 mm
06:11 16.9 °F /  -8.4 °C 4.7 °F /  -15.2 °C 30.28 in /  1025.3 hPa NNW 7.9 mph /  12.7 km/h 12.7 mph /  20.4 km/h 58 % 0.00 in /  0 mm
06:18 16.9 °F /  -8.4 °C 4.3 °F /  -15.4 °C 30.29 in /  1025.6 hPa North 7.2 mph /  11.6 km/h 10.4 mph /  16.7 km/h 57 % 0.00 in /  0 mm
06:24 16.8 °F /  -8.4 °C 4.2 °F /  -15.4 °C 30.29 in /  1025.6 hPa NNW 7.0 mph /  11.3 km/h 10.4 mph /  16.7 km/h 57 % 0.00 in /  0 mm
06:34 16.8 °F /  -8.4 °C 3.8 °F /  -15.7 °C 30.29 in /  1025.6 hPa NNE 4.0 mph /  6.4 km/h 6.9 mph /  11.1 km/h 56 % 0.00 in /  0 mm
06:48 16.8 °F /  -8.4 °C 4.6 °F /  -15.2 °C 30.30 in /  1026 hPa NNE 2.9 mph /  4.7 km/h 9.2 mph /  14.8 km/h 58 % 0.00 in /  0 mm
06:56 16.8 °F /  -8.4 °C 4.2 °F /  -15.4 °C 30.30 in /  1026 hPa NNE 7.6 mph /  12.2 km/h 11.5 mph /  18.5 km/h 57 % 0.00 in /  0 mm
07:01 16.8 °F /  -8.4 °C 3.8 °F /  -15.7 °C 30.31 in /  1026.3 hPa NNE 6.5 mph /  10.5 km/h 10.4 mph /  16.7 km/h 56 % 0.00 in /  0 mm
07:06 16.8 °F /  -8.4 °C 3.4 °F /  -15.9 °C 30.31 in /  1026.3 hPa NNE 4.4 mph /  7.1 km/h 12.7 mph /  20.4 km/h 55 % 0.00 in /  0 mm
07:18 16.7 °F /  -8.5 °C 3.7 °F /  -15.7 °C 30.31 in /  1026.3 hPa NNE 7.5 mph /  12.1 km/h 11.5 mph /  18.5 km/h 56 % 0.00 in /  0 mm
07:28 16.7 °F /  -8.5 °C 3.7 °F /  -15.7 °C 30.32 in /  1026.6 hPa NNE 4.6 mph /  7.4 km/h 6.9 mph /  11.1 km/h 56 % 0.00 in /  0 mm
07:51 17.0 °F /  -8.3 °C 4.0 °F /  -15.6 °C 30.33 in /  1027 hPa North 9.5 mph /  15.3 km/h 12.7 mph /  20.4 km/h 56 % 0.00 in /  0 mm
07:56 17.0 °F /  -8.3 °C 4.4 °F /  -15.3 °C 30.33 in /  1027 hPa North 6.2 mph /  10 km/h 13.8 mph /  22.2 km/h 57 % 0.00 in /  0 mm
08:01 17.1 °F /  -8.3 °C 3.7 °F /  -15.7 °C 30.33 in /  1027 hPa NNE 7.6 mph /  12.2 km/h 14.0 mph /  22.5 km/h 55 % 0.00 in /  0 mm
08:10 16.9 °F /  -8.4 °C 3.5 °F /  -15.8 °C 30.34 in /  1027.3 hPa NNW 10.2 mph /  16.4 km/h 15.0 mph /  24.1 km/h 55 % 0.00 in /  0 mm
08:23 16.4 °F /  -8.7 °C 3.0 °F /  -16.1 °C 30.35 in /  1027.7 hPa NNE 6.2 mph /  10 km/h 9.2 mph /  14.8 km/h 55 % 0.00 in /  0 mm
08:29 16.2 °F /  -8.8 °C 3.2 °F /  -16 °C 30.35 in /  1027.7 hPa NNE 7.5 mph /  12.1 km/h 11.0 mph /  17.7 km/h 56 % 0.00 in /  0 mm
08:35 16.1 °F /  -8.8 °C 3.1 °F /  -16.1 °C 30.36 in /  1028 hPa NNE 6.6 mph /  10.6 km/h 10.4 mph /  16.7 km/h 56 % 0.00 in /  0 mm
08:45 16.0 °F /  -8.9 °C 3.4 °F /  -15.9 °C 30.36 in /  1028 hPa North 6.9 mph /  11.1 km/h 9.2 mph /  14.8 km/h 57 % 0.00 in /  0 mm
08:52 15.9 °F /  -8.9 °C 3.0 °F /  -16.1 °C 30.37 in /  1028.3 hPa North 5.4 mph /  8.7 km/h 11.5 mph /  18.5 km/h 56 % 0.00 in /  0 mm
09:01 16.1 °F /  -8.8 °C 3.1 °F /  -16.1 °C 30.36 in /  1028 hPa North 4.9 mph /  7.9 km/h 9.2 mph /  14.8 km/h 56 % 0.00 in /  0 mm
09:15 16.8 °F /  -8.4 °C 4.6 °F /  -15.2 °C 30.38 in /  1028.7 hPa North 4.1 mph /  6.6 km/h 11.5 mph /  18.5 km/h 58 % 0.00 in /  0 mm
09:26 17.3 °F /  -8.2 °C 4.3 °F /  -15.4 °C 30.38 in /  1028.7 hPa North 3.0 mph /  4.8 km/h 7.0 mph /  11.3 km/h 56 % 0.00 in /  0 mm
09:35 17.8 °F /  -7.9 °C 3.9 °F /  -15.6 °C 30.38 in /  1028.7 hPa North 6.0 mph /  9.7 km/h 15.0 mph /  24.1 km/h 54 % 0.00 in /  0 mm
09:41 18.0 °F /  -7.8 °C 3.7 °F /  -15.7 °C 30.39 in /  1029 hPa North 5.2 mph /  8.4 km/h 9.0 mph /  14.5 km/h 53 % 0.00 in /  0 mm
09:52 18.6 °F /  -7.4 °C 4.7 °F /  -15.2 °C 30.40 in /  1029.3 hPa North 5.4 mph /  8.7 km/h 8.0 mph /  12.9 km/h 54 % 0.00 in /  0 mm
10:06 19.3 °F /  -7.1 °C 4.9 °F /  -15.1 °C 30.40 in /  1029.3 hPa NNW 4.8 mph /  7.7 km/h 6.9 mph /  11.1 km/h 53 % 0.00 in /  0 mm
10:26 20.0 °F /  -6.7 °C 3.9 °F /  -15.6 °C 30.40 in /  1029.3 hPa NNW 3.7 mph /  6 km/h 8.1 mph /  13 km/h 49 % 0.00 in /  0 mm
10:31 20.3 °F /  -6.5 °C 4.2 °F /  -15.4 °C 30.39 in /  1029 hPa North 4.5 mph /  7.2 km/h 8.1 mph /  13 km/h 49 % 0.00 in /  0 mm
10:39 20.5 °F /  -6.4 °C 3.9 °F /  -15.6 °C 30.39 in /  1029 hPa NW 5.9 mph /  9.5 km/h 5.9 mph /  9.5 km/h 48 % 0.00 in /  0 mm
10:45 20.6 °F /  -6.3 °C 4.0 °F /  -15.6 °C 30.39 in /  1029 hPa NNW 4.8 mph /  7.7 km/h 10.4 mph /  16.7 km/h 48 % 0.00 in /  0 mm
10:53 21.0 °F /  -6.1 °C 5.2 °F /  -14.9 °C 30.39 in /  1029 hPa NNW 3.1 mph /  5 km/h 4.6 mph /  7.4 km/h 50 % 0.00 in /  0 mm
10:58 21.3 °F /  -5.9 °C 5.1 °F /  -14.9 °C 30.38 in /  1028.7 hPa NNE 5.2 mph /  8.4 km/h 8.0 mph /  12.9 km/h 49 % 0.00 in /  0 mm
11:04 21.7 °F /  -5.7 °C 5.0 °F /  -15 °C 30.38 in /  1028.7 hPa North 3.4 mph /  5.5 km/h 6.9 mph /  11.1 km/h 48 % 0.00 in /  0 mm
11:10 21.8 °F /  -5.7 °C 5.1 °F /  -14.9 °C 30.38 in /  1028.7 hPa NNE 6.3 mph /  10.1 km/h 11.5 mph /  18.5 km/h 48 % 0.00 in /  0 mm
11:15 21.7 °F /  -5.7 °C 4.5 °F /  -15.3 °C 30.38 in /  1028.7 hPa NNW 6.9 mph /  11.1 km/h 11.5 mph /  18.5 km/h 47 % 0.00 in /  0 mm
11:20 21.5 °F /  -5.8 °C 3.9 °F /  -15.6 °C 30.37 in /  1028.3 hPa NNE 4.6 mph /  7.4 km/h 6.0 mph /  9.7 km/h 46 % 0.00 in /  0 mm
11:28 21.5 °F /  -5.8 °C 4.8 °F /  -15.1 °C 30.37 in /  1028.3 hPa North 8.8 mph /  14.2 km/h 12.0 mph /  19.3 km/h 48 % 0.00 in /  0 mm
11:33 21.5 °F /  -5.8 °C 4.8 °F /  -15.1 °C 30.37 in /  1028.3 hPa North 5.5 mph /  8.9 km/h 12.0 mph /  19.3 km/h 48 % 0.00 in /  0 mm
11:43 21.6 °F /  -5.8 °C 4.4 °F /  -15.3 °C 30.37 in /  1028.3 hPa North 4.8 mph /  7.7 km/h 11.5 mph /  18.5 km/h 47 % 0.00 in /  0 mm
11:54 21.6 °F /  -5.8 °C 3.5 °F /  -15.8 °C 30.36 in /  1028 hPa North 7.5 mph /  12.1 km/h 10.4 mph /  16.7 km/h 45 % 0.00 in /  0 mm
11:59 21.6 °F /  -5.8 °C 4.4 °F /  -15.3 °C 30.37 in /  1028.3 hPa North 7.2 mph /  11.6 km/h 12.0 mph /  19.3 km/h 47 % 0.00 in /  0 mm
12:07 21.7 °F /  -5.7 °C 3.6 °F /  -15.8 °C 30.36 in /  1028 hPa North 4.2 mph /  6.8 km/h 12.7 mph /  20.4 km/h 45 % 0.00 in /  0 mm
12:12 21.8 °F /  -5.7 °C 3.7 °F /  -15.7 °C 30.36 in /  1028 hPa North 7.3 mph /  11.7 km/h 12.7 mph /  20.4 km/h 45 % 0.00 in /  0 mm
12:17 22.1 °F /  -5.5 °C 4.9 °F /  -15.1 °C 30.36 in /  1028 hPa North 6.6 mph /  10.6 km/h 10.4 mph /  16.7 km/h 47 % 0.00 in /  0 mm
12:24 22.5 °F /  -5.3 °C 4.8 °F /  -15.1 °C 30.36 in /  1028 hPa NNE 2.8 mph /  4.5 km/h 6.9 mph /  11.1 km/h 46 % 0.00 in /  0 mm
12:29 22.9 °F /  -5.1 °C 5.2 °F /  -14.9 °C 30.36 in /  1028 hPa NNE 5.3 mph /  8.5 km/h 9.2 mph /  14.8 km/h 46 % 0.00 in /  0 mm
12:58 24.1 °F /  -4.4 °C 4.8 °F /  -15.1 °C 30.35 in /  1027.7 hPa North 7.2 mph /  11.6 km/h 10.4 mph /  16.7 km/h 43 % 0.00 in /  0 mm
13:03 24.3 °F /  -4.3 °C 5.0 °F /  -15 °C 30.35 in /  1027.7 hPa North 6.6 mph /  10.6 km/h 10.4 mph /  16.7 km/h 43 % 0.00 in /  0 mm
13:20 24.7 °F /  -4.1 °C 5.3 °F /  -14.8 °C 30.34 in /  1027.3 hPa NNE 6.8 mph /  10.9 km/h 9.2 mph /  14.8 km/h 43 % 0.00 in /  0 mm
13:38 25.4 °F /  -3.7 °C 6.5 °F /  -14.2 °C 30.34 in /  1027.3 hPa NNE 5.1 mph /  8.2 km/h 11.0 mph /  17.7 km/h 44 % 0.00 in /  0 mm
13:45 25.4 °F /  -3.7 °C 4.9 °F /  -15.1 °C 30.34 in /  1027.3 hPa NNE 8.0 mph /  12.9 km/h 13.8 mph /  22.2 km/h 41 % 0.00 in /  0 mm
13:51 25.4 °F /  -3.7 °C 6.0 °F /  -14.4 °C 30.34 in /  1027.3 hPa NE 10.0 mph /  16.1 km/h 13.8 mph /  22.2 km/h 43 % 0.00 in /  0 mm
13:58 25.6 °F /  -3.6 °C 5.1 °F /  -14.9 °C 30.34 in /  1027.3 hPa NNE 7.8 mph /  12.6 km/h 10.4 mph /  16.7 km/h 41 % 0.00 in /  0 mm
14:11 25.6 °F /  -3.6 °C 4.6 °F /  -15.2 °C 30.35 in /  1027.7 hPa North 8.3 mph /  13.4 km/h 10.4 mph /  16.7 km/h 40 % 0.00 in /  0 mm
14:17 25.7 °F /  -3.5 °C 4.7 °F /  -15.2 °C 30.35 in /  1027.7 hPa NNE 8.7 mph /  14 km/h 15.0 mph /  24.1 km/h 40 % 0.00 in /  0 mm
14:24 25.5 °F /  -3.6 °C 5.0 °F /  -15 °C 30.35 in /  1027.7 hPa NNW 6.8 mph /  10.9 km/h 13.8 mph /  22.2 km/h 41 % 0.00 in /  0 mm
14:29 25.2 °F /  -3.8 °C 4.8 °F /  -15.1 °C 30.35 in /  1027.7 hPa NNE 8.2 mph /  13.2 km/h 11.5 mph /  18.5 km/h 41 % 0.00 in /  0 mm
14:38 25.1 °F /  -3.8 °C 5.7 °F /  -14.6 °C 30.35 in /  1027.7 hPa NE 7.6 mph /  12.2 km/h 10.0 mph /  16.1 km/h 43 % 0.00 in /  0 mm
14:43 24.9 °F /  -3.9 °C 5.5 °F /  -14.7 °C 30.35 in /  1027.7 hPa North 6.8 mph /  10.9 km/h 11.5 mph /  18.5 km/h 43 % 0.00 in /  0 mm
14:57 24.5 °F /  -4.2 °C 5.2 °F /  -14.9 °C 30.35 in /  1027.7 hPa NNE 7.6 mph /  12.2 km/h 11.5 mph /  18.5 km/h 43 % 0.00 in /  0 mm
15:03 24.4 °F /  -4.2 °C 5.1 °F /  -14.9 °C 30.36 in /  1028 hPa North 6.4 mph /  10.3 km/h 10.4 mph /  16.7 km/h 43 % 0.00 in /  0 mm
15:22 24.2 °F /  -4.3 °C 4.9 °F /  -15.1 °C 30.36 in /  1028 hPa NNW 8.2 mph /  13.2 km/h 15.0 mph /  24.1 km/h 43 % 0.00 in /  0 mm
15:31 24.1 °F /  -4.4 °C 4.8 °F /  -15.1 °C 30.36 in /  1028 hPa North 7.2 mph /  11.6 km/h 11.0 mph /  17.7 km/h 43 % 0.00 in /  0 mm
15:40 24.1 °F /  -4.4 °C 5.3 °F /  -14.8 °C 30.36 in /  1028 hPa NNW 6.9 mph /  11.1 km/h 9.2 mph /  14.8 km/h 44 % 0.00 in /  0 mm
15:49 24.0 °F /  -4.4 °C 5.2 °F /  -14.9 °C 30.37 in /  1028.3 hPa North 7.1 mph /  11.4 km/h 10.4 mph /  16.7 km/h 44 % 0.00 in /  0 mm
15:55 23.9 °F /  -4.5 °C 5.6 °F /  -14.7 °C 30.37 in /  1028.3 hPa North 5.2 mph /  8.4 km/h 6.9 mph /  11.1 km/h 45 % 0.00 in /  0 mm
16:14 23.6 °F /  -4.7 °C 3.8 °F /  -15.7 °C 30.37 in /  1028.3 hPa North 9.3 mph /  15 km/h 15.0 mph /  24.1 km/h 42 % 0.00 in /  0 mm
16:24 23.3 °F /  -4.8 °C 4.1 °F /  -15.5 °C 30.37 in /  1028.3 hPa NNE 7.1 mph /  11.4 km/h 12.7 mph /  20.4 km/h 43 % 0.00 in /  0 mm
16:29 23.2 °F /  -4.9 °C 4.5 °F /  -15.3 °C 30.37 in /  1028.3 hPa NNE 8.4 mph /  13.5 km/h 16.1 mph /  25.9 km/h 44 % 0.00 in /  0 mm
16:34 23.1 °F /  -4.9 °C 4.4 °F /  -15.3 °C 30.38 in /  1028.7 hPa NNE 7.5 mph /  12.1 km/h 11.5 mph /  18.5 km/h 44 % 0.00 in /  0 mm
16:43 23.0 °F /  -5 °C 4.8 °F /  -15.1 °C 30.38 in /  1028.7 hPa NNW 7.0 mph /  11.3 km/h 9.2 mph /  14.8 km/h 45 % 0.00 in /  0 mm
16:56 22.6 °F /  -5.2 °C 4.4 °F /  -15.3 °C 30.38 in /  1028.7 hPa North 5.8 mph /  9.3 km/h 10.4 mph /  16.7 km/h 45 % 0.00 in /  0 mm
17:08 22.4 °F /  -5.3 °C 4.7 °F /  -15.2 °C 30.39 in /  1029 hPa NNE 6.7 mph /  10.8 km/h 11.5 mph /  18.5 km/h 46 % 0.00 in /  0 mm
17:13 22.4 °F /  -5.3 °C 5.6 °F /  -14.7 °C 30.39 in /  1029 hPa NE 4.3 mph /  6.9 km/h 9.2 mph /  14.8 km/h 48 % 0.00 in /  0 mm
17:22 22.3 °F /  -5.4 °C 6.0 °F /  -14.4 °C 30.39 in /  1029 hPa NNW 5.7 mph /  9.2 km/h 12.0 mph /  19.3 km/h 49 % 0.00 in /  0 mm
17:28 22.2 °F /  -5.4 °C 5.9 °F /  -14.5 °C 30.39 in /  1029 hPa North 7.6 mph /  12.2 km/h 13.0 mph /  20.9 km/h 49 % 0.00 in /  0 mm
17:33 22.1 °F /  -5.5 °C 5.8 °F /  -14.6 °C 30.39 in /  1029 hPa NNE 8.3 mph /  13.4 km/h 10.4 mph /  16.7 km/h 49 % 0.00 in /  0 mm
17:39 22.0 °F /  -5.6 °C 6.2 °F /  -14.3 °C 30.40 in /  1029.3 hPa North 5.8 mph /  9.3 km/h 6.9 mph /  11.1 km/h 50 % 0.00 in /  0 mm
17:51 21.8 °F /  -5.7 °C 6.4 °F /  -14.2 °C 30.40 in /  1029.3 hPa NE 7.2 mph /  11.6 km/h 12.0 mph /  19.3 km/h 51 % 0.00 in /  0 mm
18:00 21.6 °F /  -5.8 °C 6.7 °F /  -14.1 °C 30.40 in /  1029.3 hPa NNE 8.2 mph /  13.2 km/h 11.5 mph /  18.5 km/h 52 % 0.00 in /  0 mm
18:05 21.5 °F /  -5.8 °C 7.0 °F /  -13.9 °C 30.40 in /  1029.3 hPa NE 7.9 mph /  12.7 km/h 11.5 mph /  18.5 km/h 53 % 0.00 in /  0 mm
18:12 21.3 °F /  -5.9 °C 6.8 °F /  -14 °C 30.40 in /  1029.3 hPa NNE 8.4 mph /  13.5 km/h 12.7 mph /  20.4 km/h 53 % 0.00 in /  0 mm
18:24 21.1 °F /  -6.1 °C 7.8 °F /  -13.4 °C 30.41 in /  1029.7 hPa NNE 6.0 mph /  9.7 km/h 11.5 mph /  18.5 km/h 56 % 0.00 in /  0 mm
18:30 20.8 °F /  -6.2 °C 7.2 °F /  -13.8 °C 30.41 in /  1029.7 hPa NNE 6.7 mph /  10.8 km/h 11.5 mph /  18.5 km/h 55 % 0.00 in /  0 mm
18:40 20.5 °F /  -6.4 °C 7.3 °F /  -13.7 °C 30.41 in /  1029.7 hPa NNW 4.7 mph /  7.6 km/h 10.4 mph /  16.7 km/h 56 % 0.00 in /  0 mm
18:50 20.3 °F /  -6.5 °C 7.5 °F /  -13.6 °C 30.42 in /  1030 hPa NNE 9.2 mph /  14.8 km/h 13.8 mph /  22.2 km/h 57 % 0.00 in /  0 mm
18:57 20.2 °F /  -6.6 °C 8.1 °F /  -13.3 °C 30.42 in /  1030 hPa North 6.9 mph /  11.1 km/h 10.4 mph /  16.7 km/h 59 % 0.00 in /  0 mm
19:06 20.0 °F /  -6.7 °C 8.7 °F /  -12.9 °C 30.42 in /  1030 hPa North 6.5 mph /  10.5 km/h 12.7 mph /  20.4 km/h 61 % 0.00 in /  0 mm
19:13 20.0 °F /  -6.7 °C 9.1 °F /  -12.7 °C 30.42 in /  1030 hPa North 6.9 mph /  11.1 km/h 10.4 mph /  16.7 km/h 62 % 0.00 in /  0 mm
19:18 20.0 °F /  -6.7 °C 9.4 °F /  -12.6 °C 30.42 in /  1030 hPa NW 6.6 mph /  10.6 km/h 11.5 mph /  18.5 km/h 63 % 0.00 in /  0 mm
19:24 19.9 °F /  -6.7 °C 9.3 °F /  -12.6 °C 30.43 in /  1030.4 hPa NNE 6.8 mph /  10.9 km/h 8.1 mph /  13 km/h 63 % 0.00 in /  0 mm
19:32 19.8 °F /  -6.8 °C 9.2 °F /  -12.7 °C 30.43 in /  1030.4 hPa NNE 11.3 mph /  18.2 km/h 17.3 mph /  27.8 km/h 63 % 0.00 in /  0 mm
19:39 19.7 °F /  -6.8 °C 9.5 °F /  -12.5 °C 30.42 in /  1030 hPa North 7.5 mph /  12.1 km/h 10.4 mph /  16.7 km/h 64 % 0.00 in /  0 mm
19:48 19.6 °F /  -6.9 °C 9.7 °F /  -12.4 °C 30.42 in /  1030 hPa North 8.1 mph /  13 km/h 15.0 mph /  24.1 km/h 65 % 0.00 in /  0 mm
19:56 19.6 °F /  -6.9 °C 10.1 °F /  -12.2 °C 30.42 in /  1030 hPa NE 6.8 mph /  10.9 km/h 14.0 mph /  22.5 km/h 66 % 0.00 in /  0 mm
20:01 19.5 °F /  -6.9 °C 10.0 °F /  -12.2 °C 30.42 in /  1030 hPa NNE 8.4 mph /  13.5 km/h 10.4 mph /  16.7 km/h 66 % 0.00 in /  0 mm
20:19 19.3 °F /  -7.1 °C 10.5 °F /  -11.9 °C 30.42 in /  1030 hPa NNE 10.0 mph /  16.1 km/h 17.3 mph /  27.8 km/h 68 % 0.00 in /  0 mm
20:30 19.1 °F /  -7.2 °C 10.6 °F /  -11.9 °C 30.42 in /  1030 hPa North 9.2 mph /  14.8 km/h 17.0 mph /  27.4 km/h 69 % 0.00 in /  0 mm
20:39 19.1 °F /  -7.2 °C 10.6 °F /  -11.9 °C 30.42 in /  1030 hPa NNE 9.1 mph /  14.6 km/h 13.8 mph /  22.2 km/h 69 % 0.00 in /  0 mm
20:44 19.1 °F /  -7.2 °C 10.9 °F /  -11.7 °C 30.42 in /  1030 hPa NNE 8.8 mph /  14.2 km/h 15.0 mph /  24.1 km/h 70 % 0.00 in /  0 mm
20:53 19.0 °F /  -7.2 °C 10.8 °F /  -11.8 °C 30.42 in /  1030 hPa NNE 6.9 mph /  11.1 km/h 12.7 mph /  20.4 km/h 70 % 0.00 in /  0 mm
21:02 19.0 °F /  -7.2 °C 10.8 °F /  -11.8 °C 30.42 in /  1030 hPa NNW 9.2 mph /  14.8 km/h 13.0 mph /  20.9 km/h 70 % 0.00 in /  0 mm
21:07 18.9 °F /  -7.3 °C 10.7 °F /  -11.8 °C 30.41 in /  1029.7 hPa NNE 6.8 mph /  10.9 km/h 8.1 mph /  13 km/h 70 % 0.00 in /  0 mm
21:16 18.9 °F /  -7.3 °C 11.0 °F /  -11.7 °C 30.41 in /  1029.7 hPa NNE 6.0 mph /  9.7 km/h 12.0 mph /  19.3 km/h 71 % 0.00 in /  0 mm
21:21 18.9 °F /  -7.3 °C 11.0 °F /  -11.7 °C 30.42 in /  1030 hPa NE 9.5 mph /  15.3 km/h 12.7 mph /  20.4 km/h 71 % 0.00 in /  0 mm
21:29 18.8 °F /  -7.3 °C 10.9 °F /  -11.7 °C 30.42 in /  1030 hPa NNE 8.9 mph /  14.3 km/h 12.7 mph /  20.4 km/h 71 % 0.00 in /  0 mm
21:39 18.8 °F /  -7.3 °C 10.6 °F /  -11.9 °C 30.44 in /  1030.7 hPa North 7.7 mph /  12.4 km/h 10.4 mph /  16.7 km/h 70 % 0.00 in /  0 mm
21:44 18.8 °F /  -7.3 °C 10.6 °F /  -11.9 °C 30.43 in /  1030.4 hPa NNE 4.5 mph /  7.2 km/h 9.2 mph /  14.8 km/h 70 % 0.00 in /  0 mm
21:59 18.8 °F /  -7.3 °C 10.9 °F /  -11.7 °C 30.43 in /  1030.4 hPa NE 8.8 mph /  14.2 km/h 13.0 mph /  20.9 km/h 71 % 0.00 in /  0 mm
22:13 18.8 °F /  -7.3 °C 10.9 °F /  -11.7 °C 30.45 in /  1031 hPa ENE 5.8 mph /  9.3 km/h 9.0 mph /  14.5 km/h 71 % 0.00 in /  0 mm
22:30 18.9 °F /  -7.3 °C 11.0 °F /  -11.7 °C 30.45 in /  1031 hPa NNE 4.8 mph /  7.7 km/h 6.9 mph /  11.1 km/h 71 % 0.00 in /  0 mm
22:35 18.9 °F /  -7.3 °C 10.7 °F /  -11.8 °C 30.46 in /  1031.4 hPa NNE 3.4 mph /  5.5 km/h 5.8 mph /  9.3 km/h 70 % 0.00 in /  0 mm
22:41 19.0 °F /  -7.2 °C 10.8 °F /  -11.8 °C 30.45 in /  1031 hPa NE 4.5 mph /  7.2 km/h 10.4 mph /  16.7 km/h 70 % 0.00 in /  0 mm
22:46 19.1 °F /  -7.2 °C 10.6 °F /  -11.9 °C 30.46 in /  1031.4 hPa NE 6.0 mph /  9.7 km/h 12.0 mph /  19.3 km/h 69 % 0.00 in /  0 mm
22:52 19.1 °F /  -7.2 °C 10.9 °F /  -11.7 °C 30.45 in /  1031 hPa NE 5.2 mph /  8.4 km/h 9.2 mph /  14.8 km/h 70 % 0.00 in /  0 mm
22:58 19.2 °F /  -7.1 °C 10.7 °F /  -11.8 °C 30.44 in /  1030.7 hPa NE 7.1 mph /  11.4 km/h 10.0 mph /  16.1 km/h 69 % 0.00 in /  0 mm
23:03 19.2 °F /  -7.1 °C 11.0 °F /  -11.7 °C 30.44 in /  1030.7 hPa NNE 4.4 mph /  7.1 km/h 9.2 mph /  14.8 km/h 70 % 0.00 in /  0 mm
23:10 19.2 °F /  -7.1 °C 11.0 °F /  -11.7 °C 30.43 in /  1030.4 hPa NE 4.9 mph /  7.9 km/h 8.1 mph /  13 km/h 70 % 0.00 in /  0 mm
23:15 19.2 °F /  -7.1 °C 10.7 °F /  -11.8 °C 30.43 in /  1030.4 hPa NNE 4.3 mph /  6.9 km/h 10.4 mph /  16.7 km/h 69 % 0.00 in /  0 mm
23:26 19.2 °F /  -7.1 °C 11.0 °F /  -11.7 °C 30.43 in /  1030.4 hPa NNE 6.6 mph /  10.6 km/h 19.6 mph /  31.5 km/h 70 % 0.00 in /  0 mm
23:32 19.2 °F /  -7.1 °C 11.0 °F /  -11.7 °C 30.43 in /  1030.4 hPa NE 5.6 mph /  9 km/h 8.1 mph /  13 km/h 70 % 0.00 in /  0 mm
23:40 19.2 °F /  -7.1 °C 11.3 °F /  -11.5 °C 30.43 in /  1030.4 hPa North 10.6 mph /  17.1 km/h 16.0 mph /  25.7 km/h 71 % 0.00 in /  0 mm
Crab Meadow Weather
Compliments of Weather Underground - 2.25 mb

Script developed by  Jim McMurry - jmcmurry@mwt.net Adapted for the template by  Wim van der Kuil - Leuven-Template.eu

Recycling: Americans use 2,500,000 plastic bottles every hour! Most of them are thrown away!